Regional Weather Roundup
Issued by NWS

Home | Current Version | Previous Version | Text Only | Print | Product List | Glossary On
Versions: 1 2 3 4 5 6 7 8 9 10 11 12 13 14 15 16 17 18 19 20 21 22 23 24 25 26 27 28 29 30 31 32 33 34 35 36 37 38 39 40 41 42 43 44 45 46 47 48 49 50
000
ASUS44 KLIX 010211
RWRLA
LOUISIANA WEATHER ROUNDUP
NATIONAL WEATHER SERVICE NEW ORLEANS LA
900 PM CDT SAT APR 30 2016

NOTE: "FAIR" INDICATES FEW OR NO CLOUDS BELOW 12,000 FEET WITH NO
      SIGNIFICANT WEATHER AND/OR OBSTRUCTIONS TO VISIBILITY.
      SKY/WX - SKY CONDITION AND SIGNIFICANT WEATHER.
      TMP - AIR TEMPERATURE.    DP   - DEWPOINT TEMPERATURE.
      RH  - RELATIVE HUMIDITY.  PRES - PRESSURE.
      HX  - HEAT INDEX.         WCI  - WIND CHILL INDEX.

*  THESE STATIONS ARE NOT NWS OR FAA STATIONS AND ARE NOT UNDER
   NWS QUALITY CONTROL.

LAZ040-048-061>063-065-066-069-010300-
SOUTHEAST LOUISIANA

CITY           SKY/WX    TMP DP  RH WIND       PRES   REMARKS
N.O. AUDUBON     N/A     70  67  90 MISG        N/A
N.O. INTL ARPT CLOUDY    71  66  84 SE7       29.85R
N.O. LAKEFRONT CLOUDY    68  66  93 SE8       29.85S
N.O. DOWNTOWN* FAIR      71  66  84 S7        29.86S
RESERVE*       FAIR      71  67  85 SE6       29.85R
SLIDELL        PTCLDY    71  66  84 SE7       29.86R
BATON ROUGE    PTCLDY    71  66  84 SE6       29.83R
BOOTHVILLE     CLOUDY    68  65  90 SE13G20   29.90F
BELLE CHASSE   MOCLDY    70  66  87 SE7       29.85R
BOGALUSA*      FAIR      68  65  88 SE5       29.89R
GALLIANO*      PTCLDY    66  65  94 SE13G18   29.87R
NEW ROADS*     CLOUDY    73  68  86 SE8       29.84R
GONZALES*      FAIR      69  69 100 CALM      29.84R
HAMMOND*       MOCLDY    70  64  83 S5        29.85S
HOUMA*         CLOUDY    73  69  90 SE15G22   29.85R
PORT FOURCHON* MOCLDY    73  68  83 E14G22    29.89R

$$

LAZ041-044-053-054-010300-
SOUTHWEST LOUISIANA

CITY           SKY/WX    TMP DP  RH WIND       PRES   REMARKS
LAKE CHARLES   CLOUDY    78  74  87 SE14      29.77R
LAFAYETTE      CLOUDY    75  70  84 VRB6      29.81R
PATTERSON      NOT AVBL
SALT POINT       N/A     74  71  91 SE14G23   29.81R
NEW IBERIA     LGT RAIN  74  69  85 SE17      29.82R
CHENAULT AIRPK CLOUDY    77  73  88 SE12      29.77

$$

LAZ027-028-010300-
CENTRAL LOUISIANA

CITY           SKY/WX    TMP DP  RH WIND       PRES   REMARKS
FORT POLK      PTCLDY    76  71  84 E3        29.77R
ALEXANDRIA INT MOCLDY    77  72  84 SE8       29.77R
ALEXANDRIA     MOCLDY    75  71  87 SE5       29.79R

$$

LAZ001-002-010300-
NORTHWEST LOUISIANA

CITY           SKY/WX    TMP DP  RH WIND       PRES   REMARKS
SHREVEPORT     PTCLDY    74  70  87 S3        29.76R
BARKSDALE AFB  CLEAR     72  71  96 SE3       29.76R
DTN SHREVEPORT CLEAR     74  68  81 SE5       29.76R

$$

LAZ014-016-010300-
NORTHEAST LOUISIANA

CITY           SKY/WX    TMP DP  RH WIND       PRES   REMARKS
MONROE         CLOUDY    76  70  82 VRB3      29.79R
TALLULAH       CLOUDY    73  66  78 SE12      29.83R

$$




USA.gov is the U.S. government's official web portal to all federal, state and local government web resources and services.